Volver al catálogo

COSMOS 1823 DEB

ActivoLEO
NORAD 39814·DEBRIS·🇷🇺 Russia

Lanzado Feb 20, 1987 desde Plesetsk Cosmodrome

Loading…

Próximos Pases (próximas 24 horas)

TLE

ObsoletoSource: Space-Track

Época: Sep 4, 2026, 10:14 UTC

1 39814U 87020EN  26247.42666066  .00000014  00000-0  22548-3 0  9998
2 39814  73.6106 274.3000 0025191  70.1805 290.1952 12.43174645555892

Sigue COSMOS 1823 DEB en tiempo real con AllMySat

Download on the App Store